軌道要素
Epoch 2019 Feb. 6.0 TT = JDT 2458520.5
T 2019 Feb. 2.50419 TT Rudenko
q 3.9211549 (2000.0) P Q
z -0.0005373 Peri. 284.74972 +0.27591503 +0.96068828
+/-0.0000002 Node 2.17722 -0.19811227 +0.08820088
e 1.0021069 Incl. 54.17878 -0.94054369 +0.26324632
From 1489 observations 2016 Mar. 4-2021 Aug. 20, mean residual 0".5.
|